Back to catalog

COSMOS 397 DEB

AliveLEO
NORAD 5277·DEBRIS·🇷🇺 Russia

Launched Feb 25, 1971 from Baikonur Cosmodrome

Loading…

Next Passes (next 24 hours)

TLE

FreshSource: Space-Track

Epoch: Sep 14, 2026, 11:35 UTC

1 05277U 71015BE  26257.48305931  .00000104  00000-0  77479-4 0  9993
2 05277  65.7331  64.2941 0918413 262.8155  86.7717 13.01203845273554

Track COSMOS 397 DEB in real time with AllMySat

Download on the App Store